Regional Weather Roundup
Issued by NWS Sioux Falls, SD

Home | Current Version | Previous Version | Text Only | Print | Product List | Glossary On
Versions: 1 2 3 4 5 6 7 8 9 10 11 12 13 14 15 16 17 18 19 20 21 22 23 24 25 26 27 28 29 30 31 32 33 34 35 36 37 38 39 40 41 42 43 44 45 46 47 48 49 50
000
ASUS43 KFSD 040402
RWRFSD

WEATHER ROUNDUP FOR SE SOUTH DAKOTA/SW MINNESOTA/NW IOWA
NATIONAL WEATHER SERVICE SIOUX FALLS SD
1100 PM CDT THU SEP 03 2015

NOTE: "FAIR" INDICATES FEW OR NO CLOUDS BELOW 12,000 FEET WITH NO
SIGNIFICANT WEATHER AND OR OBSTRUCTIONS TO VISIBILITY.


SDZ038>040-050-052>070-040500-
SOUTHEAST SOUTH DAKOTA

CITY           SKY/WX    TMP DP  RH WIND       PRES   REMARKS
BROOKINGS      MOCLDY    75  70  83 SE10      29.84F
CHAMBERLAIN    CLOUDY    76  71  84 SE9       29.73F
HURON          MOCLDY    77  72  84 SE12      29.74F
MADISON        FAIR      75  75 100 SE10      29.82F
MITCHELL       MOCLDY    77  73  87 SE8       29.76S
SIOUX FALLS    MOCLDY    79  72  79 SE9       29.81F
WINNER         FAIR      80  67  64 SE10      29.73F
YANKTON        CLOUDY    75  72  88 E8        29.77S
$$

MNZ071-072-080-081-089-090-097-098-040500-
SOUTHWEST MINNESOTA

CITY           SKY/WX    TMP DP  RH WIND       PRES   REMARKS
FAIRMONT       CLEAR     75  66  73 S6        29.88S
JACKSON        CLEAR     77  73  88 SE7       29.88F
LUVERNE        MOCLDY    75  72  88 SE3       29.85S
MARSHALL       CLEAR     75  70  83 SE7       29.85F
MONTEVIDEO     CLEAR     75  75 100 SE8       29.85F
PIPESTONE      MOCLDY    75  72  88 SE5       29.85F
REDWOOD FALLS  CLEAR     78  75  90 E7        29.85S
TRACY          CLEAR     75  73  94 SE5       29.86S
WINDOM         CLEAR     75  72  88 SE5       29.87F
WORTHINGTON    CLEAR     73  70  88 SE7       29.87S
$$

IAZ001>003-012>014-020>022-031-032-NEZ013-014-SDZ071-040500-
NORTHWEST IOWA

CITY           SKY/WX    TMP DP  RH WIND       PRES   REMARKS
DENISON        CLEAR     77  72  83 S13       29.85S
ESTHERVILLE    CLEAR     74  72  93 SE6       29.88R
SIOUX CITY     PTCLDY    77  70  79 SE10      29.81S
SPENCER        HAZE      76  71  85 SE8       29.87S VSB 1/2
$$

ABBREVIATIONS USED IN REMARKS
   TC - TEMPERATURE IN CELSIUS
  WCI - WIND CHILL INDEX
   HX - HEAT INDEX
  VSB - VISIBILITY



USA.gov is the U.S. government's official web portal to all federal, state and local government web resources and services.